Location: Piotrkow Trybunalski
(51.4000°N, 19.6830°E)
Time: 05:52:58
(UTC+02:00)

STRAND 1 - Pass Details

Date: 03 March 2024
Orbit: 764 x 779 km, 98.4° (Epoch: 24 April)

Event Time Altitude Azimuth Distance (km) Brightness Sun altitude
Rises 20:15:51 0° 4° (N) 3,269 ? -26.7°
Reaches altitude 10° 20:19:01 10° 344° (NNW) 2,333 ? -27.1°
Maximum altitude 20:22:01 16° 308° (NW) 1,943 ? -27.5°
Drops below altitude 10° 20:25:01 10° 271° (W) 2,319 ? -28.0°
Sets 20:28:10 0° 251° (WSW) 3,239 ? -28.4°
